Weather History for Scottsdale, AZ

Change the Weather History Date:

Sunday, March 24, 2013

  Actual Average Record
Temperature  
Mean Temperature 64 °F -  
Max Temperature 77 °F 76 °F 89 °F (1998)
Min Temperature 50 °F 53 °F 46 °F (2009)
Degree Days  
Heating Degree Days 2    
Growing Degree Days 14 (Base 50)    
Moisture  
Dew Point 14 °F    
Average Humidity 16    
Maximum Humidity 33    
Minimum Humidity 7    
Precipitation  
Precipitation 0.00 in - - ()
Sea Level Pressure  
Sea Level Pressure 29.91 in    
Wind  
Wind Speed 1 mph (WSW)    
Max Wind Speed 8 mph    
Max Gust Speed -    
Visibility 10 miles    
Events      
Averages and records for this station are not official NWS values.
T = Trace of Precipitation, MM = Missing Value Source: NWS Daily Summary

Daily Weather History Graph

Daily Weather History Graph

Search for Another Location

Airport:

Trip Planner

Search our weather history database for the weather conditions in past years. The results will help you decide how hot, cold, wet, or windy it might be!

Date:

Astronomy

Mar. 24, 2013 Rise Set
Actual Time 6:25 AM MST 6:42 PM MST
Civil Twilight 6:00 AM MST 7:07 PM MST
Nautical Twilight 5:31 AM MST 7:36 PM MST
Astronomical Twilight 5:02 AM MST 8:06 PM MST
Moon 4:20 PM MST (3/24) 4:31 AM MST (3/24)
Length of Visible Light 13h 06m
Length of Day
12h 17m
Waxing Gibbous, 92% of the Moon is Illuminated
Mar 24
Waxing Gibbous
Mar 27
Full
Apr 2
Last Quarter
Apr 10
New
Apr 18
First Quarter

Hourly Weather History & Observations

Time (MST) Temp. Dew Point Humidity Pressure Visibility Wind Dir Wind Speed Gust Speed Precip Events Conditions
12:53 AM 57.0 °F 12.0 °F 17% 29.94 in 10.0 mi Calm Calm - N/A   Clear
1:53 AM 54.0 °F 15.1 °F 22% 29.94 in 10.0 mi Calm Calm - N/A   Clear
2:53 AM 51.1 °F 19.9 °F 29% 29.94 in 10.0 mi Calm Calm - N/A   Clear
3:53 AM 51.1 °F 19.0 °F 28% 29.94 in 10.0 mi Calm Calm - N/A   Clear
4:53 AM 52.0 °F 19.0 °F 27% 29.94 in 10.0 mi Calm Calm - N/A   Clear
5:53 AM 50.0 °F 21.9 °F 33% 29.96 in 10.0 mi Calm Calm - N/A   Clear
6:53 AM 51.1 °F 19.0 °F 28% 29.96 in 10.0 mi Calm Calm - N/A   Clear
7:53 AM 53.1 °F 24.1 °F 32% 29.98 in 10.0 mi Calm Calm - N/A   Clear
8:53 AM 60.1 °F 19.0 °F 20% 29.98 in 10.0 mi Calm Calm - N/A   Clear
9:53 AM 64.9 °F 15.1 °F 15% 29.97 in 10.0 mi Calm Calm - N/A   Clear
10:53 AM 68.0 °F 9.0 °F 10% 29.97 in 10.0 mi SW 5.8 mph - N/A   Clear
11:53 AM 70.0 °F 5.0 °F 8% 29.95 in 10.0 mi Calm Calm - N/A   Clear
12:53 PM 72.0 °F 3.9 °F 7% 29.92 in 10.0 mi SSE 4.6 mph - N/A   Clear
1:53 PM 75.0 °F 9.0 °F 8% 29.88 in 10.0 mi Calm Calm - N/A   Clear
2:53 PM 75.0 °F 8.1 °F 8% 29.86 in 10.0 mi Calm Calm - N/A   Clear
3:53 PM 75.9 °F 8.1 °F 7% 29.84 in 10.0 mi NNW 6.9 mph - N/A   Clear
4:53 PM 77.0 °F 8.1 °F 7% 29.83 in 10.0 mi West 8.1 mph - N/A   Clear
5:53 PM 75.9 °F 8.1 °F 7% 29.83 in 10.0 mi WSW 6.9 mph - N/A   Clear
6:53 PM 73.0 °F 10.0 °F 9% 29.83 in 10.0 mi WSW 5.8 mph - N/A   Clear
7:53 PM 71.1 °F 10.0 °F 9% 29.84 in 10.0 mi WSW 3.5 mph - N/A   Clear
8:53 PM 68.0 °F 15.1 °F 13% 29.86 in 10.0 mi Calm Calm - N/A   Clear
9:53 PM 69.1 °F 12.0 °F 11% 29.87 in 10.0 mi Calm Calm - N/A   Clear
10:53 PM 66.0 °F 16.0 °F 15% 29.88 in 10.0 mi NW 3.5 mph - N/A   Clear
11:53 PM 61.0 °F 24.1 °F 24% 29.88 in 10.0 mi Calm Calm - N/A   Clear